Home   Weather   Cabinda   Past weeks

Flag for Angola Past Weather in Cabinda, Angola — Yesterday and Last 2 Weeks

Now
82 °F

Scattered clouds.


Feels Like: 88 °F
Forecast: 79 / 87 °F
Wind: 8 mph from South

Location: Pointe Airport-Noire

Current Time: Apr 30, 2017 at 5:46:52 pm

Latest Report: Apr 30, 2017 at 4:00 pm


Visibility: N/A

Pressure: 29.83 "Hg

Humidity: 74%

Dew Point: 73 °F

Location of CabindaLocation

Past Weather in Cabinda — Graph

°F

Cabinda Temperature Yesterday

Maximum temperature yesterday: 86 °F (at 12:00 pm)
Minimum temperature yesterday: 73 °F (at 12:00 am)
Average temperature yesterday: 79 °F

High & Low Weather Summary for the Past Weeks

 TemperatureHumidityPressure
High88 °F (Apr 16, 12:00 pm)100% (Apr 18, 5:00 am)30.01 "Hg (Apr 18, 5:00 am)
Low73 °F (Apr 28, 11:00 pm)59% (Apr 16, 12:00 pm)29.71 "Hg (Apr 18, 4:00 pm)
Average81 °F83%29.85 "Hg
* Reported Apr 15 4:00 pm — Apr 30 4:00 pm, Cabinda, Weather by CustomWeather, © 2017

Note: Actual official high and low records may vary slightly from our data, if they occured in-between our weather recording intervals... More about our weather records

Advertising

Cabinda Weather History for the Previous 24 Hours

Scroll right to see more
 ConditionsComfort  
Time TempWeatherWind HumidityBarometerVisibility
4:00 pm
Sun, Apr 30
82 °FScattered clouds.8 mph74%29.83 "HgN/A
3:00 pm84 °FPartly sunny.9 mph66%29.83 "HgN/A
2:00 pm84 °FPartly sunny.12 mph66%29.86 "HgN/A
1:00 pm84 °FPartly sunny.12 mph70%29.86 "HgN/A
12:00 pm84 °FBroken clouds.12 mph70%29.89 "HgN/A
11:00 am82 °FBroken clouds.9 mph79%29.92 "Hg5 mi
10:00 am82 °FBroken clouds.7 mph79%29.95 "Hg5 mi
9:00 am81 °FMore clouds than sun.5 mph84%29.92 "Hg5 mi
8:00 am81 °FBroken clouds.5 mph84%29.92 "Hg5 mi
7:00 am79 °FBroken clouds.2 mph89%29.89 "Hg5 mi
6:00 am79 °FPartly cloudy.5 mph89%29.89 "Hg5 mi
5:00 am79 °FPartly cloudy.7 mph94%29.89 "Hg5 mi
4:00 am79 °FPartly cloudy.10 mph94%29.89 "Hg5 mi
3:00 am79 °FPartly cloudy.9 mph94%29.86 "HgN/A
2:00 am79 °FPassing clouds.9 mph94%29.89 "HgN/A
1:00 am79 °FPassing clouds.7 mph94%29.89 "HgN/A
12:00 am79 °FPassing clouds.5 mph94%29.89 "HgN/A
11:00 pm
Sat, Apr 29
79 °FPassing clouds.7 mph94%29.89 "HgN/A
10:00 pm79 °FPassing clouds.6 mph94%29.89 "HgN/A
9:00 pm81 °FPassing clouds.7 mph84%29.92 "HgN/A
8:00 pm81 °FPassing clouds.7 mph84%29.86 "HgN/A
7:00 pm81 °FPassing clouds.5 mph84%29.80 "HgN/A
6:00 pm81 °FScattered clouds.7 mph89%29.80 "HgN/A
5:00 pm84 °FPassing clouds.7 mph74%29.80 "HgN/A
Weather by CustomWeather, © 2017

See weather overviewHow to use our weather pages